{"data":{"norad_id":58959,"intl_designator":"2024-028E","name":"RAPTOR2","alt_names":[],"object_type":"PAYLOAD","status":"ACTIVE","operator":null,"country":"US","launch_date":"2024-02-14","launch_site_code":"AFETR","launch_vehicle":null,"mission":null,"orbit_class":"UNKNOWN","rcs_meters":null,"size_class":null,"mass_kg":null,"dimensions":null,"purposes":[],"wikipedia_slug":null,"has_3d_model":false,"image_url":null,"decayed_at":null,"tle_current":{"epoch":"2026-09-22T03:19:42.544704Z","epoch_age_seconds":110829,"freshness":"FRESH","line1":"1 58959U 24028E   26265.13868686 -.00000059  00000+0  21065-4 0  9991","line2":"2 58959  39.9917 317.4564 0010274  97.5657 262.6256 13.70561723130377","mean_motion":13.70561723,"eccentricity":0.0010274,"inclination_deg":39.9917,"raan_deg":317.4564,"arg_perigee_deg":97.5657,"mean_anomaly_deg":262.6256,"bstar":2.1065e-5,"rev_number":13037,"period_min":105.06641005908,"perigee_km":989.97726017369,"apogee_km":1005.1328321902,"semimajor_km":7375.6920461819,"source":"CELESTRAK","updated_at":"2026-09-23T09:00:19.082792Z"}}}